User: anonymous   Login
Location: Kunchanapalle
(16.4623°N, 80.6176°E)
Time: 13:35:53
(UTC+00:00)
Language:

Cosmos 1269 Rocket - Orbit

View from above orbital plane
View from above orbital plane
View from above satellite
View from above satellite

Ground track
Ground track

The orbit data is extracted from the following two-line orbital elements,

1 12443U 81041B   20294.73048668 -.00000080 +00000-0 -18889-4 0  9995
2 12443 074.0519 091.7447 0005356 254.3500 105.7061 14.34738334063214
Epoch (UTC): 20 October 2020 17:31:54
Eccentricity: 0.0005356
inclination: 74.0519°
perigee height: 772 km
apogee height: 780 km
right ascension of ascending node: 91.7447°
argument of perigee: 254.3500°
revolutions per day: 14.34738334
mean anomaly at epoch: 105.7061°
orbit number at epoch: 6321

The dashed part of the orbit path shows where the satellite is in the earth's shadow,  

DLR